sat.trackr.live / text

‹ back to catalog

STARLINK-5057

NORAD 53908 · 2022-119Y

PAYLOAD ACTIVE UNKNOWN

§ Identity

Operator
Country
US
Launch date
2022-09-24
Launch site
AFETR
Launch vehicle
Mass (kg)
RCS (m²)

Purposes: comms

External: N2YO · Heavens-Above · Gunter

§ Orbital elements

Epoch: 2026-05-24T22:29:37.936032Z

Period
95.44 min
Inclination
53.2135°
Eccentricity
0.0001502
Mean motion
15.08827515 rev/d
Perigee alt
538.7 km
Apogee alt
540.8 km
Semi-major
6,917.9 km
B*
1.6640e-4
RAAN
331.9734°
Arg perigee
80.2970°
Mean anomaly
279.8192°
Rev number
20,333

§ Raw data

STARLINK-50571 53908U 22119Y   26144.93724463  .00002360  00000+0  16640-3 0  99952 53908  53.2135 331.9734 0001502  80.2970 279.8192 15.08827515203331

JSON: /api/v1/satellites/53908 · /tle

For live sub-satellite position, see the globe view (requires WebGL).

§ Visibility from observer

Set your observer location to see the next 7 days of passes ≥ 10°. The values pass through the URL so the page stays shareable.

No JS? Fill the form by hand. The geolocation button needs JavaScript.